Temp
80 82 84 84 77 78 68 70 75 73 73 74 77 76 73 70 67 64 79 80 84 84 85 87 80 81 82 81 80 80 80 80 80 80 80 80 80 80 80 80 80 80 82 82 82 82 81 82 82
83 80 84 83 75 69 68 73 72 75 77 79 77 77 73 66 74 75 77 81 83 84 85 86 79 80 81 81 80 80 80 80 80 80 80 79 80 80 80 80 80 81 81 81 81 82 81 82 82
83 84 84 79 73 68 68 73 75 76 78 77 73 75 71 67 74 75 79 81 84 84 86 84 80 80 80 80 80 80 80 80 80 80 80 80 80 80 80 80 81 81 82 82 82 82 81 81 81
86 86 82 76 69 71 74 77 77 75 76 77 75 69 73 76 75 78 80 82 82 82 84 82 79 79 80 80 80 80 79 80 80 80 80 80 80 80 80 80 80 81 82 82 82 81 81 80 80
87 84 75 69 68 72 76 77 79 75 73 73 75 67 68 74 78 78 79 80 80 82 84 84 77 78 79 79 79 79 77 77 77 77 78 79 79 79 79 80 80 80 81 81 81 81 80 80 80
84 81 73 68 69 72 75 77 78 76 75 74 74 71 70 77 77 77 80 79 81 81 82 81 78 77 78 78 78 78 77 77 77 77 77 76 76 78 79 79 80 80 80 80 80 80 79 79 79
80 79 69 70 70 71 74 79 75 75 75 72 76 68 72 76 77 78 80 80 80 81 82 82 83 80 78 77 77 77 77 76 76 76 74 74 75 76 76 75 77 79 79 79 79 79 79 79 78
82 81 70 73 71 69 75 74 76 76 71 79 77 69 69 75 78 79 79 80 79 78 80 82 82 85 85 83 76 76 75 75 75 75 74 74 75 75 76 76 78 77 78 78 79 79 79 78 78
81 78 72 71 73 71 75 72 75 77 74 72 74 75 77 77 79 77 76 77 78 78 78 80 81 82 84 83 78 77 76 76 76 76 74 78 80 79 81 77 75 76 76 77 77 78 78 78 78
83 80 74 78 77 75 75 75 73 72 71 69 70 76 77 78 77 76 77 77 78 78 79 81 78 78 78 79 78 79 79 78 76 75 74 77 75 76 76 76 74 74 74 74 73 73 75 78 86
77 76 77 75 79 80 74 74 75 72 68 71 70 72 75 75 76 77 79 80 79 80 80 79 76 77 79 78 78 77 76 75 73 71 72 72 74 74 75 74 75 75 75 78 77 76 77 75 74
76 75 78 77 78 78 73 75 71 72 70 75 75 75 75 75 77 79 79 80 80 80 79 80 78 76 76 77 75 75 74 73 72 71 70 70 71 71 71 71 72 71 71 70 71 73 70 70 74
75 74 75 77 77 76 77 72 70 69 73 76 75 75 75 75 76 78 78 79 80 80 79 79 77 73 73 73 73 72 71 70 70 70 68 69 69 67 68 69 70 69 69 69 68 66 67 67 68
75 75 74 77 75 75 71 71 72 70 74 74 74 74 76 75 76 76 76 77 77 77 77 78 77 74 76 72 70 71 70 70 69 68 67 67 67 65 66 67 67 67 67 67 68 68 65 66 67
77 71 74 74 74 72 76 66 64 72 73 72 73 74 74 75 77 75 76 75 77 76 74 75 75 74 72 71 71 69 69 68 66 66 65 65 65 64 63 66 65 66 66 61 61 66 68 68 70
73 74 68 70 72 72 72 59 67 72 71 70 72 73 73 73 75 76 76 76 75 75 72 72 75 74 71 70 70 70 68 68 67 66 65 63 63 62 63 65 65 65 65 61 60 60 59 59 61
70 66 64 66 73 70 69 61 68 72 71 70 71 73 72 72 73 75 75 74 73 72 71 71 70 71 71 69 71 69 66 66 66 66 65 62 62 62 61 63 64 64 63 60 59 60 59 58 60
66 65 66 66 71 69 65 63 68 70 71 70 71 72 72 72 73 74 73 72 71 70 69 69 69 67 68 70 70 70 69 67 66 64 63 61 62 61 61 62 61 62 62 59 57 55 59 60 61
75 72 67 64 68 67 65 62 65 68 70 69 71 71 71 71 74 73 70 70 66 68 67 66 65 64 66 66 65 65 64 64 64 63 61 61 60 60 59 60 59 57 57 55 55 55 55 61 64
74 70 63 63 67 66 63 59 64 68 69 71 71 71 72 72 72 68 67 65 66 66 65 64 63 62 63 64 63 62 62 63 62 62 60 60 59 58 57 58 54 53 53 54 54 52 52 54 60
74 71 62 63 63 65 62 57 59 66 68 71 72 74 75 73 71 66 65 66 66 64 64 63 62 61 61 61 62 62 62 62 60 60 60 60 60 58 57 57 54 53 54 52 51 51 51 50 55
71 75 69 62 64 58 65 59 58 62 63 67 70 72 71 67 66 66 66 65 64 64 64 63 62 61 61 60 60 57 57 55 58 59 59 59 59 58 57 55 55 53 53 52 53 53 51 50 49
67 75 69 67 64 64 61 61 59 62 59 65 67 66 66 66 67 66 67 66 65 65 64 62 61 60 60 59 58 59 56 59 60 59 57 57 58 58 57 55 55 54 54 56 55 52 52 51 49
74 70 70 68 67 60 61 61 59 57 62 66 66 64 63 65 65 66 66 65 64 66 65 63 61 59 60 59 58 57 56 56 57 56 57 58 58 58 57 54 54 53 53 54 55 53 52 51 50
73 70 60 59 59 59 61 60 62 65 67 69 65 62 64 65 65 65 64 64 63 63 63 64 61 59 59 59 59 58 57 57 56 56 56 55 57 56 55 52 52 52 53 53 54 54 52 50 49
71 72 65 53 54 61 60 58 62 62 64 70 67 65 64 64 65 64 63 63 63 61 61 62 60 58 59 59 58 59 59 59 58 56 55 54 53 56 53 53 52 52 52 52 53 56 55 52 52
71 69 71 59 57 60 62 61 61 61 60 63 62 62 62 62 62 62 62 62 61 61 60 60 59 59 59 59 59 59 58 57 57 56 55 56 54 55 56 54 52 52 52 53 52 58 56 57 56
77 73 65 66 52 51 56 56 62 57 58 59 59 61 61 62 61 61 61 60 61 60 60 60 60 59 59 59 59 59 59 59 59 58 55 56 55 53 54 56 53 53 52 52 52 53 56 55 57
72 71 64 66 62 59 55 60 63 64 62 59 61 62 61 62 61 61 61 60 60 61 61 59 59 59 59 59 59 59 59 59 59 57 56 57 57 54 53 55 54 53 55 54 53 53 52 55 55
74 71 70 67 57 59 60 62 62 64 66 63 62 62 63 63 61 61 61 60 60 59 59 59 58 59 59 59 59 58 58 59 57 57 57 58 58 55 55 55 56 57 55 55 54 54 56 55 52
MSLP
1011.16 1011.38 1011.24 1010.73 1010.28 1009.28 1009.32 1009.80 1010.08 1010.12 1010.75 1011.93 1011.92 1012.04 1012.76 1013.88 1014.28 1015.35 1015.95 1015.69 1015.37 1015.36 1015.23 1014.99 1015.00 1014.86 1014.84 1014.90 1014.78 1014.98 1015.10 1015.04 1014.97 1014.90 1014.85 1014.78 1015.02 1015.14 1015.48 1015.65 1015.94 1015.99 1016.08 1016.14 1016.32 1016.44 1016.63 1016.81 1016.85
1011.13 1011.18 1010.71 1009.79 1009.24 1008.99 1009.76 1010.08 1009.95 1010.37 1011.23 1011.86 1012.26 1012.76 1013.43 1014.78 1015.40 1015.65 1015.70 1015.92 1015.60 1015.61 1015.61 1015.36 1015.49 1015.25 1015.13 1015.16 1015.07 1015.20 1015.25 1015.25 1015.29 1015.44 1015.42 1015.53 1015.41 1015.54 1015.57 1015.63 1015.80 1015.92 1016.09 1016.43 1016.63 1016.52 1016.63 1016.76 1016.94
1010.95 1010.67 1009.88 1009.52 1009.58 1009.35 1009.81 1010.38 1010.44 1011.35 1011.90 1012.03 1012.84 1013.77 1014.58 1015.86 1016.16 1016.32 1016.52 1016.20 1015.84 1015.88 1015.89 1015.86 1015.65 1015.52 1015.53 1015.40 1015.31 1015.29 1015.32 1015.36 1015.48 1015.52 1015.63 1015.77 1016.00 1015.98 1016.10 1016.01 1015.78 1015.94 1016.00 1016.18 1016.35 1016.44 1016.65 1016.73 1016.87
1010.46 1010.27 1010.35 1009.82 1009.69 1010.17 1010.09 1010.47 1011.19 1011.85 1012.35 1012.71 1013.37 1014.37 1015.92 1016.91 1016.67 1017.06 1016.77 1016.33 1016.53 1016.62 1016.40 1016.41 1016.20 1015.95 1015.95 1015.73 1015.57 1015.44 1015.64 1015.70 1015.80 1015.94 1016.02 1015.68 1015.74 1016.04 1016.16 1016.36 1016.39 1016.30 1016.24 1016.33 1016.32 1016.22 1016.36 1016.46 1016.71
1010.34 1009.87 1009.57 1010.05 1010.34 1010.49 1010.94 1011.46 1011.58 1011.86 1012.60 1013.35 1013.70 1015.10 1016.22 1017.24 1017.39 1017.36 1017.04 1016.95 1016.91 1016.71 1016.68 1016.66 1016.49 1016.29 1016.29 1016.12 1016.13 1016.07 1016.39 1016.36 1016.30 1016.21 1016.16 1015.94 1015.97 1016.00 1016.04 1016.17 1016.28 1016.30 1016.19 1016.04 1016.25 1016.25 1016.34 1016.38 1016.48
1009.65 1009.76 1009.33 1009.70 1010.45 1011.07 1011.54 1011.76 1011.86 1012.17 1012.88 1013.51 1014.04 1015.02 1016.54 1017.34 1017.55 1017.62 1017.50 1017.37 1017.16 1017.06 1017.05 1017.07 1016.94 1016.85 1016.76 1016.69 1016.59 1016.59 1016.70 1016.73 1016.60 1016.57 1016.44 1016.48 1016.06 1016.19 1016.04 1016.02 1016.05 1015.97 1016.15 1016.09 1015.89 1016.00 1016.12 1016.18 1016.21
1009.22 1009.13 1009.59 1010.01 1010.60 1011.06 1011.60 1012.06 1012.43 1012.93 1013.22 1013.96 1014.51 1015.10 1016.62 1017.11 1017.80 1017.87 1017.74 1017.72 1017.54 1017.33 1017.13 1017.14 1017.08 1017.18 1017.11 1017.04 1016.95 1017.10 1017.03 1017.03 1016.86 1016.75 1016.69 1017.08 1016.71 1016.43 1016.34 1016.47 1016.18 1015.85 1015.64 1015.74 1015.85 1015.85 1015.76 1015.88 1016.00
1009.29 1009.24 1009.68 1010.00 1010.28 1011.29 1012.04 1012.57 1013.06 1013.11 1013.89 1014.46 1014.93 1015.35 1016.40 1017.36 1017.98 1018.06 1017.97 1017.89 1017.78 1017.77 1017.65 1017.31 1017.39 1017.09 1016.89 1017.12 1017.34 1017.28 1017.30 1017.27 1017.15 1016.92 1016.96 1017.05 1016.79 1016.65 1016.35 1016.21 1016.07 1015.91 1015.57 1015.29 1015.16 1015.63 1015.71 1015.37 1015.57
1009.48 1009.00 1009.21 1009.90 1010.36 1011.39 1012.51 1012.88 1013.63 1014.03 1014.09 1015.06 1015.51 1015.82 1016.69 1017.64 1017.68 1017.84 1018.06 1017.99 1018.11 1018.13 1018.14 1017.70 1017.61 1017.70 1017.47 1017.53 1017.64 1017.58 1017.62 1017.54 1017.47 1017.43 1017.35 1016.95 1016.84 1016.66 1016.34 1016.40 1016.21 1015.84 1015.54 1015.29 1015.24 1015.09 1015.20 1015.17 1015.20
1008.85 1008.85 1009.57 1010.30 1010.75 1011.49 1012.70 1013.21 1013.91 1014.51 1014.86 1015.67 1016.10 1016.61 1017.13 1017.51 1017.74 1017.78 1017.80 1017.96 1018.10 1018.29 1018.34 1018.24 1018.30 1018.29 1018.10 1018.08 1018.08 1018.00 1018.03 1017.98 1018.15 1018.21 1017.98 1017.74 1017.51 1017.34 1016.92 1016.68 1016.48 1015.98 1015.63 1015.42 1015.25 1015.17 1014.80 1014.83 1014.26
1009.50 1009.63 1010.24 1011.12 1011.38 1011.94 1012.86 1013.66 1014.43 1014.95 1015.31 1015.55 1016.09 1016.78 1017.34 1017.65 1017.87 1017.92 1017.85 1017.87 1018.26 1018.64 1018.73 1018.75 1018.84 1018.72 1018.50 1018.47 1018.46 1018.53 1018.76 1018.84 1019.08 1019.13 1018.84 1018.40 1017.88 1017.71 1017.41 1017.12 1016.74 1016.37 1015.81 1015.24 1014.93 1014.63 1014.54 1014.49 1014.33
1009.71 1010.70 1010.69 1011.59 1012.11 1012.44 1013.29 1014.20 1014.97 1015.43 1016.43 1016.43 1016.73 1017.28 1017.70 1017.82 1017.79 1018.01 1018.03 1018.31 1018.59 1018.84 1018.91 1019.10 1019.25 1019.09 1019.09 1019.06 1019.10 1019.12 1019.18 1019.33 1019.45 1019.47 1019.08 1018.59 1018.20 1017.99 1017.79 1017.52 1017.18 1016.86 1016.55 1016.18 1015.50 1014.75 1014.61 1014.50 1013.97
1010.26 1011.02 1011.70 1012.24 1012.46 1013.18 1014.02 1014.85 1015.53 1016.58 1017.39 1017.43 1017.28 1017.59 1017.78 1018.05 1018.34 1018.55 1018.76 1018.81 1018.95 1019.00 1019.47 1019.71 1019.74 1019.74 1019.81 1019.67 1019.67 1019.70 1019.60 1019.80 1019.85 1019.70 1019.55 1019.28 1018.85 1018.74 1018.34 1017.96 1017.63 1017.38 1017.04 1016.65 1016.13 1015.56 1014.83 1014.57 1014.07
1010.97 1011.43 1012.19 1012.74 1013.09 1013.93 1014.49 1015.68 1015.88 1017.37 1017.92 1017.87 1017.76 1017.91 1018.06 1018.18 1018.60 1018.98 1019.21 1019.22 1019.33 1019.43 1019.62 1019.88 1019.75 1019.97 1020.02 1020.09 1020.22 1020.16 1020.31 1020.37 1020.23 1020.23 1020.23 1019.97 1019.64 1019.43 1018.74 1018.19 1017.90 1017.53 1017.35 1016.89 1016.26 1015.74 1015.26 1014.49 1014.27
1011.36 1011.62 1012.41 1013.22 1013.62 1014.47 1014.71 1016.08 1016.88 1017.57 1018.10 1018.10 1018.01 1018.13 1018.49 1018.63 1018.93 1019.11 1019.36 1019.63 1019.66 1019.94 1020.14 1019.96 1020.09 1020.37 1020.63 1020.71 1020.73 1020.99 1021.13 1021.02 1020.94 1020.78 1020.81 1020.48 1020.03 1019.62 1019.24 1018.54 1018.17 1017.57 1017.39 1017.44 1016.84 1015.96 1015.19 1014.69 1014.04
1011.28 1011.78 1012.45 1013.73 1014.04 1014.88 1015.13 1016.46 1017.48 1017.84 1018.10 1018.17 1018.09 1018.13 1018.50 1018.93 1019.11 1019.39 1019.87 1020.10 1020.49 1020.43 1020.74 1020.89 1020.69 1020.77 1021.14 1021.22 1021.13 1021.12 1021.26 1021.13 1021.09 1021.02 1020.88 1020.75 1020.43 1020.11 1019.35 1018.52 1018.04 1017.81 1017.36 1017.22 1016.75 1016.24 1015.80 1015.24 1014.56
1011.31 1011.40 1012.66 1013.76 1014.29 1014.83 1015.59 1016.55 1017.33 1017.84 1018.11 1018.17 1018.15 1018.24 1018.58 1019.15 1019.56 1020.00 1020.43 1020.62 1021.07 1021.35 1021.47 1021.55 1021.55 1021.45 1021.39 1021.24 1021.19 1021.40 1021.58 1021.32 1021.20 1021.01 1020.87 1020.90 1020.58 1020.45 1019.97 1019.07 1018.27 1017.84 1017.25 1017.09 1016.78 1016.19 1015.67 1015.00 1014.30
1010.10 1011.05 1012.29 1012.95 1013.87 1014.95 1015.67 1016.41 1017.14 1017.62 1017.86 1017.87 1018.04 1018.38 1018.50 1019.09 1019.65 1020.38 1020.84 1021.15 1021.75 1022.06 1022.25 1022.18 1022.19 1022.04 1021.74 1021.48 1021.36 1021.24 1021.20 1021.31 1021.35 1021.25 1021.27 1021.18 1020.77 1020.49 1020.07 1019.33 1018.77 1017.97 1017.32 1017.06 1016.82 1016.36 1015.63 1014.94 1014.05
1009.09 1010.06 1011.45 1013.40 1014.24 1015.07 1015.75 1016.61 1017.12 1017.55 1017.71 1017.70 1017.81 1018.16 1018.49 1019.09 1019.79 1020.65 1021.28 1021.80 1022.45 1022.64 1022.75 1022.86 1022.70 1022.57 1022.27 1022.13 1022.09 1021.75 1021.60 1021.60 1021.56 1021.54 1021.52 1021.33 1021.10 1020.74 1020.22 1019.58 1019.03 1018.73 1018.01 1017.44 1016.92 1016.39 1015.66 1014.55 1013.78
1009.03 1009.89 1011.89 1013.73 1014.61 1015.16 1016.01 1016.73 1017.27 1017.41 1017.27 1017.25 1017.44 1017.87 1018.35 1019.13 1019.91 1021.04 1021.82 1022.39 1022.73 1022.91 1023.14 1023.30 1023.23 1023.09 1023.03 1022.90 1022.78 1022.64 1022.40 1022.24 1022.30 1022.14 1021.88 1021.62 1021.21 1020.90 1020.51 1019.91 1019.73 1019.18 1018.48 1017.74 1017.23 1016.67 1015.93 1015.14 1014.30
1008.28 1008.94 1010.99 1012.26 1014.46 1015.36 1016.01 1016.75 1017.10 1017.37 1017.44 1017.31 1017.55 1017.72 1018.29 1018.99 1019.96 1021.23 1021.98 1022.45 1022.86 1023.20 1023.48 1023.65 1023.58 1023.55 1023.64 1023.49 1023.00 1022.69 1022.46 1022.24 1022.21 1022.04 1021.68 1021.47 1021.18 1020.98 1020.69 1020.23 1019.89 1019.37 1018.76 1018.28 1017.76 1017.07 1016.46 1015.60 1014.66
1007.75 1008.65 1010.10 1011.73 1012.71 1013.97 1015.11 1015.02 1016.22 1016.65 1016.94 1017.14 1017.29 1017.74 1018.66 1019.66 1020.71 1021.47 1022.04 1022.55 1023.10 1023.57 1023.91 1024.01 1023.99 1023.98 1023.96 1023.91 1023.37 1023.24 1022.93 1022.81 1022.81 1022.47 1022.26 1021.74 1021.38 1020.96 1020.72 1020.40 1019.81 1019.54 1019.00 1018.48 1017.89 1017.41 1016.76 1016.15 1015.20
1008.34 1008.65 1010.00 1011.24 1011.92 1012.75 1014.29 1014.55 1015.09 1016.12 1016.33 1016.69 1017.40 1018.37 1019.36 1020.13 1020.95 1021.60 1022.19 1022.85 1023.50 1023.81 1024.10 1024.30 1024.31 1024.35 1024.34 1024.07 1023.97 1023.71 1023.71 1023.44 1023.11 1022.75 1022.31 1021.82 1021.41 1021.07 1020.83 1020.43 1019.92 1019.46 1018.99 1018.39 1018.08 1017.55 1016.89 1016.46 1015.81
1008.55 1009.09 1010.14 1010.81 1011.36 1011.76 1012.97 1013.83 1014.06 1015.20 1015.46 1016.30 1017.47 1018.69 1019.64 1020.49 1021.34 1022.02 1022.71 1023.28 1023.68 1023.91 1024.13 1024.39 1024.52 1024.68 1024.63 1024.57 1024.56 1024.51 1024.26 1023.86 1023.35 1022.97 1022.28 1021.85 1021.44 1021.04 1020.86 1020.56 1020.08 1019.62 1019.12 1018.43 1017.90 1017.64 1017.20 1016.67 1016.11
1007.95 1007.94 1009.18 1010.02 1010.63 1011.14 1012.86 1013.44 1013.31 1014.54 1015.28 1015.81 1017.27 1018.90 1019.94 1020.86 1021.59 1022.25 1022.90 1023.33 1023.74 1024.06 1024.29 1024.49 1024.83 1024.95 1025.11 1025.05 1024.93 1024.69 1024.36 1023.99 1023.54 1023.28 1022.82 1022.42 1021.75 1021.34 1021.10 1020.95 1020.40 1019.80 1019.20 1018.66 1017.99 1017.45 1017.09 1016.67 1016.18
1007.15 1007.32 1007.92 1008.84 1010.12 1010.96 1012.58 1012.63 1013.50 1015.13 1015.77 1015.92 1017.60 1018.90 1020.14 1021.11 1021.95 1022.53 1023.22 1023.62 1023.95 1024.50 1024.83 1024.92 1025.09 1025.35 1025.44 1025.33 1025.08 1024.71 1024.40 1023.97 1023.65 1023.51 1023.23 1022.87 1022.44 1021.87 1021.62 1021.16 1020.67 1020.08 1019.39 1018.73 1018.12 1017.54 1016.99 1016.66 1016.17
1006.88 1007.49 1008.31 1009.27 1010.94 1010.97 1011.77 1012.67 1014.19 1015.45 1016.26 1016.96 1017.89 1019.00 1020.11 1021.24 1022.07 1022.83 1023.57 1023.97 1024.48 1024.88 1025.15 1025.23 1025.42 1025.48 1025.48 1025.31 1025.03 1024.67 1024.47 1024.18 1023.86 1023.53 1023.33 1022.91 1022.52 1022.03 1021.40 1021.23 1020.68 1020.10 1019.60 1018.99 1018.35 1017.49 1017.14 1016.47 1015.95
1005.79 1007.23 1008.33 1008.67 1009.76 1010.47 1011.49 1012.34 1012.52 1014.72 1015.92 1017.12 1018.14 1019.04 1020.31 1021.39 1022.33 1023.19 1023.77 1024.42 1024.86 1025.13 1025.33 1025.55 1025.58 1025.47 1025.41 1025.24 1025.00 1024.59 1024.36 1024.10 1023.79 1023.52 1023.31 1022.91 1022.50 1022.24 1021.71 1021.04 1020.69 1020.22 1019.73 1019.30 1018.71 1017.99 1017.22 1016.83 1016.19
1006.58 1006.98 1008.02 1008.66 1009.47 1009.62 1010.77 1011.30 1012.74 1013.45 1015.03 1016.50 1017.97 1019.27 1020.32 1021.23 1022.26 1023.25 1024.05 1024.63 1024.97 1025.22 1025.40 1025.56 1025.47 1025.41 1025.37 1025.24 1025.02 1024.66 1024.38 1024.17 1023.95 1023.67 1023.43 1022.98 1022.45 1022.23 1021.85 1021.26 1020.83 1020.42 1019.84 1019.36 1018.84 1018.23 1017.69 1016.84 1016.42
1005.90 1006.60 1007.21 1007.68 1009.50 1010.28 1010.92 1011.82 1013.47 1014.11 1015.26 1016.91 1018.12 1019.44 1020.43 1021.30 1022.45 1023.37 1024.04 1024.45 1024.88 1025.32 1025.52 1025.58 1025.58 1025.51 1025.48 1025.35 1025.11 1024.82 1024.57 1024.32 1024.19 1023.90 1023.53 1023.02 1022.50 1022.33 1021.93 1021.40 1020.83 1020.27 1020.05 1019.55 1019.10 1018.45 1017.87 1017.26 1016.86
Wind_Speed
12 8 3 3 2 2 4 5 3 6 4 3 5 7 10 13 7 6 5 11 9 9 8 8 9 6 3 4 6 8 9 9 9 9 10 12 12 13 12 11 10 10 12 13 13 14 12 9 9
10 4 3 1 3 7 5 2 6 6 13 9 8 6 11 8 7 2 4 13 8 9 9 11 13 12 9 5 6 6 8 9 10 10 9 7 7 9 9 10 11 13 13 13 12 13 13 11 9
7 1 2 3 3 7 7 6 13 12 6 3 5 7 5 5 6 3 8 9 8 10 9 12 13 12 10 9 8 7 7 7 8 8 9 8 6 3 3 5 6 9 10 11 13 12 12 11 10
3 3 3 4 9 3 5 10 6 11 6 7 6 10 7 6 3 8 7 5 10 11 11 14 17 16 14 12 11 6 6 9 8 8 7 6 4 3 2 3 3 4 7 9 10 12 12 12 12
1 1 3 5 3 1 3 5 3 5 6 6 2 5 6 5 5 8 9 10 9 9 9 10 16 15 16 16 16 16 19 18 17 15 12 8 5 3 4 5 6 8 9 10 11 11 11 12 11
2 1 4 7 7 5 8 6 9 14 11 7 7 6 5 5 5 7 9 11 8 8 8 10 15 17 19 18 19 20 17 17 17 16 14 14 11 10 6 8 9 10 11 11 12 13 12 11 10
1 1 5 11 12 7 3 3 8 10 7 7 4 5 5 4 6 7 8 8 10 10 10 11 12 14 17 18 16 16 16 15 15 15 13 11 11 12 12 15 11 11 12 13 13 14 14 13 12
3 3 8 6 11 5 4 3 4 6 7 8 3 5 6 7 8 9 9 9 13 12 12 13 11 9 10 11 15 15 15 16 17 17 16 13 9 9 9 8 10 14 15 13 13 14 14 13 14
2 4 7 7 12 7 8 2 5 3 10 5 4 5 14 12 9 12 10 11 11 11 10 10 11 11 12 11 11 11 15 16 16 15 17 11 9 9 11 12 14 11 12 14 14 14 17 14 13
2 2 4 4 7 12 8 6 4 4 11 8 11 13 12 8 12 12 12 11 13 12 11 10 9 10 10 9 10 11 11 12 13 13 14 10 11 11 12 13 16 13 11 8 9 11 12 16 12
3 4 6 8 15 14 12 9 4 8 6 5 11 12 12 14 12 12 12 12 11 10 10 10 9 10 10 9 7 6 6 6 7 11 10 9 8 9 8 7 8 9 13 7 8 7 5 7 7
4 8 4 10 10 10 8 8 9 8 7 12 14 14 15 13 12 11 13 13 13 12 10 10 9 10 10 7 7 8 7 7 7 9 13 9 7 9 9 7 9 8 8 11 10 6 7 7 6
7 7 10 15 18 17 16 12 12 13 9 13 17 15 14 12 11 9 9 11 11 12 11 11 9 10 8 9 7 8 9 8 9 10 13 11 9 9 9 9 8 8 8 9 9 9 6 4 5
8 16 12 12 14 9 17 10 3 7 10 14 15 14 11 12 10 8 8 9 8 10 12 12 14 13 12 12 12 9 9 9 9 9 11 12 9 9 9 9 9 8 9 9 9 10 8 7 7
12 15 12 8 6 8 9 6 7 10 10 12 12 11 9 9 10 8 8 7 8 9 11 13 12 13 12 11 10 8 7 7 8 8 12 13 12 12 11 9 8 8 9 10 9 10 9 9 9
8 6 8 6 5 5 3 6 8 11 11 10 11 11 9 7 6 7 7 7 9 11 12 12 11 12 10 8 8 7 8 8 8 8 8 13 13 13 12 10 9 10 9 8 8 8 9 9 9
1 8 6 10 7 4 3 7 9 12 11 11 10 10 9 5 5 7 8 10 10 11 10 11 12 12 11 12 9 9 11 9 9 10 11 13 12 13 11 10 10 12 8 8 8 8 8 8 9
11 6 8 13 13 5 8 7 12 13 12 11 10 8 9 7 5 5 8 10 10 11 10 11 10 13 12 10 8 7 7 7 8 9 10 13 11 14 12 10 11 11 10 8 8 10 8 9 9
11 9 13 5 4 9 7 12 12 13 12 11 11 9 8 7 6 8 8 10 9 9 11 11 12 14 11 10 9 8 8 8 9 9 13 12 12 13 12 10 11 10 11 11 9 8 10 9 9
8 13 8 8 8 3 10 8 7 12 14 13 11 10 9 9 9 9 9 10 9 9 10 11 12 13 11 8 8 6 8 7 9 9 10 12 13 13 12 12 10 10 9 12 12 10 6 5 8
7 8 15 10 9 6 13 5 7 10 11 12 11 11 9 9 10 10 9 9 9 10 10 10 12 12 12 11 8 8 7 8 10 10 11 11 12 13 12 13 10 10 8 7 9 9 10 5 7
8 7 17 22 11 5 11 3 10 12 14 12 11 11 7 9 9 9 10 9 9 8 9 10 11 12 11 12 11 13 11 11 10 10 11 11 13 12 13 11 11 10 8 9 9 8 8 7 7
6 13 17 14 8 9 10 6 4 10 14 14 9 8 9 9 10 10 10 9 8 7 8 9 10 11 11 12 12 10 11 9 9 10 13 14 13 13 12 11 12 11 8 10 11 9 9 6 5
20 22 12 7 3 5 5 4 6 9 15 14 11 9 11 11 11 10 9 8 7 7 8 9 9 10 12 11 11 10 10 11 10 11 12 12 11 11 12 12 11 10 10 11 10 10 10 9 7
8 7 4 3 4 3 2 6 2 9 5 13 16 13 12 12 11 9 7 7 6 7 8 8 10 11 10 9 9 9 9 10 10 10 9 12 11 10 12 11 10 9 10 10 10 9 8 7 7
14 2 4 7 5 2 2 6 4 2 2 9 15 15 13 12 9 8 6 6 7 6 7 8 9 8 8 8 9 8 9 8 7 8 8 8 8 9 10 10 10 10 11 11 10 7 7 8 7
7 7 5 8 2 3 3 2 6 7 7 13 16 16 15 12 10 8 6 6 6 6 7 8 7 7 8 8 7 9 9 10 9 10 9 8 8 9 10 10 10 10 10 11 12 8 10 10 9
4 11 5 3 6 5 4 7 9 11 12 14 16 16 15 13 11 8 6 6 5 5 6 6 6 7 7 8 8 8 10 10 9 9 11 11 10 10 10 11 10 10 9 10 10 10 10 10 9
7 5 6 5 2 3 3 4 3 14 17 18 17 16 16 14 11 8 7 6 6 5 5 5 6 7 7 7 9 10 9 10 10 10 10 10 10 10 10 10 10 10 11 11 11 10 11 12 11
3 4 5 4 6 0 2 1 4 7 15 16 16 15 14 12 11 9 8 7 5 4 4 4 5 6 6 7 8 10 9 10 10 10 10 10 11 10 10 10 11 10 11 12 12 12 11 12 12
Wind_Direction
137 142 178 213 199 94 74 73 306 113 82 69 69 42 62 38 13 44 351 9 20 25 27 44 37 45 85 71 48 35 39 53 76 98 124 136 151 152 153 153 166 172 173 179 181 180 183 181 175
141 162 211 251 101 112 93 25 95 114 122 119 73 30 54 71 39 60 11 346 20 22 29 40 32 34 34 57 87 50 43 52 44 51 60 84 118 139 149 167 178 184 190 195 194 194 196 195 190
156 236 285 41 84 114 123 134 122 99 73 76 104 50 41 41 46 30 348 340 22 29 28 39 42 49 48 52 62 83 89 65 65 55 52 49 42 52 159 187 184 192 196 203 204 205 208 209 203
188 159 109 79 94 85 118 160 148 120 75 49 87 74 90 40 42 358 348 31 39 29 31 38 30 30 36 40 43 60 77 73 62 54 43 40 41 27 359 327 298 245 228 229 222 213 211 214 212
88 152 98 96 98 87 58 18 226 103 102 58 60 93 75 63 65 30 52 53 46 35 26 39 39 37 42 43 46 48 48 47 48 46 37 41 12 325 301 279 253 247 244 237 238 230 227 228 221
142 287 125 130 129 91 70 80 89 79 83 84 84 98 77 110 51 53 67 68 51 35 36 41 46 45 53 44 46 48 55 48 42 42 32 13 13 2 293 255 258 256 255 243 231 230 234 233 231
178 111 99 120 128 126 129 53 62 95 86 55 73 84 104 89 65 90 75 53 47 42 58 59 57 57 60 59 65 56 54 53 52 47 46 46 26 17 11 356 320 281 255 257 257 240 224 228 230
127 89 137 137 162 121 117 100 109 85 81 113 23 109 132 71 97 85 69 78 60 64 60 61 69 71 68 69 64 62 55 50 44 39 32 29 33 13 3 337 335 324 309 274 263 261 256 230 222
166 158 142 140 150 131 134 88 50 85 112 63 72 106 109 114 100 95 85 76 76 72 77 80 72 59 57 57 59 64 57 53 44 34 30 24 19 6 350 355 343 330 320 322 314 280 264 255 245
19 143 86 71 120 132 117 105 71 89 107 92 95 107 123 93 104 103 102 96 90 92 79 81 77 71 63 60 57 59 54 48 39 30 26 19 21 14 4 358 354 350 345 334 336 329 302 262 252
62 52 126 68 110 121 121 91 78 102 71 133 128 119 114 112 114 108 104 87 84 89 92 78 76 74 66 60 55 54 49 48 46 36 27 24 14 9 6 356 357 350 351 341 328 324 311 281 285
114 53 91 121 112 110 91 100 76 64 94 113 110 113 117 122 111 111 101 104 98 88 82 76 72 72 60 59 60 59 52 44 36 29 20 18 10 6 1 354 345 346 348 341 330 316 311 303 302
98 98 74 99 90 94 96 83 91 87 107 116 118 120 120 112 106 101 101 91 96 90 78 73 65 65 64 59 57 52 46 38 30 26 23 15 9 1 352 348 343 340 338 332 325 322 303 278 284
113 104 100 87 88 109 106 96 73 107 132 131 127 125 125 119 123 122 95 90 80 70 61 59 52 49 47 48 44 41 37 34 31 31 25 23 12 2 352 348 346 343 341 332 321 317 308 306 243
118 103 96 70 99 114 102 66 102 133 149 147 141 133 129 134 141 122 98 83 60 63 56 45 48 47 43 43 44 45 39 37 36 31 30 21 15 5 351 346 338 341 338 337 331 318 314 306 292
108 115 141 173 134 124 338 125 132 149 157 155 155 151 152 147 130 115 94 75 57 57 54 52 47 44 43 43 46 44 39 37 34 29 25 20 16 7 349 340 337 341 330 334 332 326 316 307 310
123 159 163 178 202 136 214 140 167 169 170 170 177 166 143 153 149 109 77 63 55 56 59 54 45 35 26 34 31 34 30 29 26 21 18 12 10 4 347 337 329 333 330 331 329 325 317 306 300
177 164 180 187 197 207 183 168 169 180 181 188 188 174 163 163 147 106 79 68 66 63 56 50 41 34 28 26 17 21 27 27 26 23 21 9 3 359 351 342 336 332 331 338 332 328 318 307 299
157 150 163 156 175 186 201 157 172 182 193 200 201 187 186 168 139 108 90 87 82 69 58 44 41 36 29 24 10 5 2 11 16 12 9 7 4 2 354 353 348 336 334 333 329 329 323 312 321
156 146 126 98 143 147 155 145 171 189 205 214 210 200 201 165 155 116 107 98 86 71 57 49 45 41 33 23 17 10 12 13 10 6 10 10 8 7 359 353 344 339 327 336 341 331 329 308 325
203 191 167 138 129 120 146 150 195 197 221 222 227 228 215 186 161 135 121 100 84 66 54 51 45 42 34 18 17 20 21 14 9 10 9 4 5 10 4 349 354 345 337 336 328 335 336 319 317
216 167 151 141 156 161 215 177 214 202 208 217 227 229 186 125 127 132 120 99 82 72 63 55 47 39 33 23 27 28 21 12 8 3 4 357 357 355 2 348 351 351 345 343 345 339 331 338 323
64 140 136 144 107 138 190 253 121 197 212 210 205 160 139 123 132 128 113 97 80 71 62 54 46 38 30 32 27 21 19 9 5 7 6 12 11 1 5 347 350 351 348 344 353 346 348 348 326
125 115 104 101 140 236 150 255 184 194 219 203 182 153 139 135 131 121 110 99 84 72 60 47 36 32 28 26 26 22 8 359 2 10 11 10 12 11 9 351 351 352 350 350 352 353 351 353 346
164 151 107 157 203 264 63 214 350 188 197 204 175 152 146 145 143 135 125 89 68 55 44 36 26 29 26 21 24 11 359 354 6 7 9 6 5 12 5 355 350 347 345 344 346 349 356 357 352
173 158 173 198 204 178 128 237 129 52 298 184 152 147 145 147 141 130 103 82 64 56 46 28 33 32 28 24 14 359 358 2 3 2 351 352 347 355 346 345 346 345 344 344 341 341 360 353 353
178 214 92 109 54 205 199 249 180 140 119 145 147 151 153 148 145 129 110 78 73 67 44 34 29 33 27 14 359 359 359 1 360 352 351 353 347 347 349 355 347 347 350 348 346 352 353 352 1
175 130 157 135 160 225 218 270 237 191 168 163 161 161 153 151 145 132 117 106 98 67 51 45 30 30 18 12 14 13 15 8 1 0 356 352 351 348 346 354 352 349 348 351 350 345 352 353 1
148 158 66 95 315 230 203 223 344 199 180 173 169 165 160 158 148 144 140 133 108 74 47 38 34 23 12 9 5 8 8 10 8 7 0 358 357 352 351 349 353 353 353 1 1 1 353 351 0
71 137 158 230 176 89 302 159 348 246 176 168 166 165 162 156 150 153 151 143 120 80 51 55 33 17 13 2 8 13 15 16 13 9 6 359 358 5 359 357 355 9 10 9 8 5 3 1 2